Flag for Norway Weather past 2 weeks in Arendal, Norway

Now
55 °F

Cool.


Feels Like: 54 °F
Forecast: 53 / 62 °F
Wind: 7 mph from Northeast

Location: Torungen Fyr

Current Time: Sep 17, 2014 at 3:54:39 AM

Latest Report: Sep 17, 2014 at 3:00 AM


Visibility: N/A

Pressure: 30.28 "Hg

Humidity: 87%

Dew point: 52 °F

Location of ArendalLocation

Historic Weather in Arendal — Graph

°F

Arendal temperature yesterday

Maximum temperature yesterday: 60 °F (at 8:00 PM)
Minimum temperature yesterday: 55 °F (at 7:00 AM)
Average temperature yesterday: 58 °F

Past Weeks' High & Low Weather Summary

 TemperatureHumidityPressure
High65 °F (Sep 4, 2:00 PM)97% (Sep 7, 10:00 AM)30.45 "Hg (Sep 7, 10:00 AM)
Low52 °F (Sep 9, 8:00 AM)67% (Sep 10, 11:00 AM)29.79 "Hg (Sep 9, 5:00 AM)
Average59 °F85%30.19 "Hg
* Reported Sep 2 2:00 AM — Sep 17 2:00 AM, Arendal, Weather by CustomWeather, © 2014

Note: Actual official high and low records may vary slightly from our data, if they occured in-between our weather recording intervals... More about our weather records

Advertising

Arendal weather history for previous 24 hours

 ConditionsComfort  
Time TempWeatherWind HumidityBarometerVisibility
2:00 AM
Sep 17
55 °FCool.7 mph88%30.29 "HgN/A
1:00 AM55 °FCool.6 mph88%30.29 "HgN/A
12:00 AM55 °FCool.6 mph86%30.30 "HgN/A
11:00 PM
Sep 16
56 °FCool.7 mph84%30.30 "HgN/A
10:00 PM58 °FCool.6 mph81%30.31 "HgN/A
9:00 PM59 °FCool.6 mph80%30.30 "HgN/A
8:00 PM60 °FCool.8 mph76%30.30 "HgN/A
7:00 PM60 °FCool.9 mph76%30.30 "HgN/A
6:00 PM60 °FCool.9 mph75%30.30 "HgN/A
5:00 PM60 °FCool.9 mph74%30.32 "HgN/A
4:00 PM59 °FCool.10 mph71%30.33 "HgN/A
3:00 PM59 °FCool.10 mph72%30.33 "HgN/A
2:00 PM59 °FCool.10 mph72%30.34 "HgN/A
1:00 PM59 °FCool.10 mph75%30.35 "HgN/A
12:00 PM59 °FCool.12 mph76%30.35 "HgN/A
11:00 AM59 °FCool.12 mph72%30.36 "HgN/A
10:00 AM58 °FCool.13 mph75%30.35 "HgN/A
9:00 AM57 °FCool.9 mph90%30.35 "HgN/A
8:00 AM56 °FCool.8 mph92%30.35 "HgN/A
7:00 AM55 °FCool.9 mph92%30.34 "HgN/A
6:00 AM55 °FCool.8 mph91%30.34 "HgN/A
5:00 AM56 °FCool.8 mph91%30.34 "HgN/A
4:00 AM56 °FCool.8 mph90%30.34 "HgN/A
3:00 AM56 °FCool.8 mph89%30.35 "HgN/A
Weather by CustomWeather, © 2014

See weather overviewHow to use our weather pages